RH
88 90 97 93 91 96 84 63 60 62 66 53 59 36 39 40 41 43 43 43 45 45 44 43 41 42 41 41 38 35 32 30
86 88 92 97 96 97 95 87 79 73 65 54 64 40 38 38 43 52 48 49 48 48 49 45 48 44 43 43 42 38 33 27
86 87 89 91 95 94 95 96 92 84 69 52 56 37 39 40 47 52 52 52 52 54 51 48 56 50 48 49 41 36 32 27
88 89 90 86 87 88 98 97 93 93 78 58 55 40 42 44 51 52 54 55 57 57 54 55 60 56 55 44 41 35 28 24
78 87 93 91 91 95 96 97 98 94 69 57 50 45 48 52 53 55 54 57 58 58 57 59 61 54 54 44 40 36 30 25
73 81 90 91 88 94 98 98 98 94 86 61 57 48 50 55 60 60 61 62 64 62 60 63 57 51 47 42 38 36 33 27
79 78 88 93 90 89 98 97 96 96 82 64 58 51 54 58 64 66 67 70 72 69 67 62 56 50 46 42 39 37 32 28
79 77 87 90 93 98 98 97 94 96 88 65 62 54 63 60 68 68 73 75 75 73 70 65 62 54 49 45 42 37 30 28
81 79 86 86 95 97 96 96 92 88 90 84 66 67 68 71 70 74 76 80 79 76 69 67 65 60 53 49 45 36 29 28
78 76 81 88 87 91 93 93 92 93 89 88 80 74 74 75 77 77 80 81 80 76 68 67 67 62 58 54 45 37 32 31
76 77 81 93 92 92 94 93 88 84 87 90 86 83 81 77 77 78 82 80 80 75 69 68 68 67 68 66 51 39 34 34
76 75 79 91 94 91 94 93 91 92 90 95 90 87 84 80 79 78 78 77 74 72 69 69 67 77 77 73 60 47 44 43
73 80 82 89 92 92 94 91 88 90 89 90 93 90 83 80 79 78 78 73 70 66 67 69 75 85 81 75 64 56 58 58
80 83 93 95 94 94 93 89 89 96 97 96 91 88 82 80 80 78 75 68 63 65 72 76 78 80 78 81 75 69 70 70
65 76 84 91 97 96 94 89 87 90 91 88 90 88 85 79 77 72 70 66 65 70 73 76 78 81 84 85 85 79 75 77
49 55 62 69 75 76 78 72 72 78 80 86 88 81 78 79 71 67 64 63 68 67 67 68 72 77 84 86 84 83 85 81
36 39 46 49 53 54 56 60 61 65 70 75 70 70 70 69 62 58 56 58 59 58 59 67 71 75 80 88 89 84 77 81
30 29 32 37 40 41 42 46 48 50 49 51 51 52 54 52 52 54 56 57 60 66 73 79 82 87 88 90 91 83 80 83
37 35 33 35 38 42 42 46 51 52 54 52 50 51 52 52 55 59 62 66 67 73 77 76 77 81 89 87 85 83 83 75
38 36 37 38 39 41 41 49 53 56 57 58 58 57 57 55 55 55 57 60 64 68 77 85 91 95 94 93 87 83 80 75